This is the latest recevied weather packets stored in our database for station/object K1AWR. If no packets are shown the sender has not sent any weather packets the latest 1 day(s).
| Time | Temp. | Humidity | Pressure | Rain* | Wind** | Luminosity | Snow |
|---|---|---|---|---|---|---|---|
| 1778044428 | 16.67° C | 72% | 1010.4 hPa | 0 mm | 0.89 m/s, 173° | 0 W/m² | - |
| 1778044125 | 16.67° C | 72% | 1010.3 hPa | 0 mm | 0.45 m/s, 279° | 0 W/m² | - |
| 1778043823 | 16.67° C | 72% | 1010.6 hPa | 0 mm | 0.89 m/s, 211° | 0 W/m² | - |
| 1778043520 | 16.67° C | 71% | 1010.4 hPa | 0 mm | 0.45 m/s, 221° | 0 W/m² | - |
| 1778043216 | 16.67° C | 71% | 1010.5 hPa | 0 mm | 0.89 m/s, 213° | 0 W/m² | - |
| 1778042913 | 17.22° C | 70% | 1010.7 hPa | 0 mm | 1.34 m/s, 168° | 0 W/m² | - |
| 1778042611 | 16.67° C | 70% | 1010.6 hPa | 0 mm | 1.34 m/s, 198° | 0 W/m² | - |
| 1778042308 | 17.22° C | 69% | 1010.6 hPa | 0 mm | 0.45 m/s, 157° | 0 W/m² | - |
| 1778042005 | 17.22° C | 68% | 1010.5 hPa | 0 mm | 0.45 m/s, 185° | 0 W/m² | - |
| 1778041703 | 17.22° C | 68% | 1010.5 hPa | 0 mm | 0.89 m/s, 201° | 0 W/m² | - |
| 1778041402 | 17.22° C | 68% | 1010.5 hPa | 0 mm | 0.45 m/s, 189° | 0 W/m² | - |
| 1778041101 | 17.22° C | 68% | 1010.5 hPa | 0 mm | 0.89 m/s, 178° | 0 W/m² | - |
| 1778040797 | 17.22° C | 67% | 1010.5 hPa | 0 mm | 1.79 m/s, 151° | 0 W/m² | - |
| 1778040494 | 17.22° C | 67% | 1010.3 hPa | 0 mm | 0.89 m/s, 188° | 0 W/m² | - |
| 1778040192 | 17.22° C | 68% | 1010.4 hPa | 0 mm | 0.89 m/s, 179° | 0 W/m² | - |
| 1778039888 | 17.22° C | 67% | 1010.5 hPa | 0 mm | 0.89 m/s, 181° | 0 W/m² | - |
| 1778039585 | 17.22° C | 66% | 1010.5 hPa | 0 mm | 0.89 m/s, 153° | 0 W/m² | - |
| 1778039282 | 17.22° C | 66% | 1010.5 hPa | 0 mm | 1.34 m/s, 182° | 0 W/m² | - |
| 1778038979 | 17.22° C | 67% | 1010.4 hPa | 0 mm | 0.89 m/s, 222° | 0 W/m² | - |
| 1778038676 | 17.22° C | 66% | 1010.7 hPa | 0 mm | 0.45 m/s, 243° | 0 W/m² | - |
| 1778038373 | 17.22° C | 66% | 1010.6 hPa | 0 mm | 0.45 m/s, 212° | 0 W/m² | - |
| 1778038070 | 17.22° C | 66% | 1010.8 hPa | 0 mm | 0.89 m/s, 197° | 0 W/m² | - |
| 1778037767 | 17.22° C | 66% | 1010.7 hPa | 0 mm | 0 m/s | 0 W/m² | - |
| 1778037463 | 17.22° C | 66% | 1010.6 hPa | 0 mm | 0.89 m/s, 162° | 0 W/m² | - |
| 1778037161 | 17.22° C | 66% | 1010.5 hPa | 0 mm | 2.24 m/s, 155° | 0 W/m² | - |
* Rain latest hour (hover to see other rain measurements)
** Current wind speed in m/s (hover to see current wind gust speed)